| time (UTC) | temp F | wind direction | speed knots | gust knots | rain 1hr in | rain 24hr in | rain mn in | humidity % | barometer mb |
| 20260505040045 | 60 | 182 | 0.9 | 6.1 | 0.00 | 0.00 | 0.00 | 64 | 1010.2 |
| 20260505034552 | 60 | 196 | 0.0 | 2.6 | 0.00 | 0.00 | 0.00 | 62 | 1010.2 |
| 20260505033045 | 60 | 0 | 0.0 | 1.7 | 0.00 | 0.00 | 0.00 | 61 | 1010.2 |
| 20260505031557 | 61 | 166 | 0.0 | 1.7 | 0.00 | 0.00 | 0.00 | 60 | 1010.2 |
| 20260505030058 | 61 | 145 | 0.9 | 4.3 | 0.00 | 0.00 | 0.00 | 60 | 1010.2 |
| 20260505024552 | 60 | 178 | 0.0 | 3.5 | 0.00 | 0.00 | 0.00 | 62 | 1010.4 |
| 20260505023051 | 61 | 0 | 0.0 | 1.7 | 0.00 | 0.00 | 0.00 | 62 | 1010.5 |
| 20260505021549 | 61 | 0 | 0.0 | 3.5 | 0.00 | 0.00 | 0.00 | 61 | 1010.5 |
| 20260505020051 | 62 | 0 | 0.0 | 0.9 | 0.00 | 0.00 | 0.00 | 58 | 1010.3 |
| 20260505014602 | 63 | 0 | 0.0 | 4.3 | 0.00 | 0.00 | 0.00 | 56 | 1010.2 |
| 20260505013051 | 64 | 0 | 0.0 | 2.6 | 0.00 | 0.00 | 0.00 | 55 | 1010.2 |
| 20260505011552 | 65 | 147 | 0.0 | 2.6 | 0.00 | 0.00 | 0.00 | 55 | 1010.0 |
| 20260505010050 | 65 | 153 | 0.9 | 3.5 | 0.00 | 0.00 | 0.00 | 53 | 1009.7 |
| 20260505004554 | 66 | 155 | 0.9 | 6.1 | 0.00 | 0.00 | 0.00 | 51 | 1009.5 |
| 20260505003046 | 67 | 141 | 0.9 | 4.3 | 0.00 | 0.00 | 0.00 | 50 | 1009.5 |
| 20260505001550 | 67 | 146 | 0.9 | 4.3 | 0.00 | 0.00 | 0.00 | 48 | 1009.2 |
| 20260505000052 | 68 | 154 | 0.9 | 5.2 | 0.00 | 0.00 | 0.00 | 45 | 1009.2 |
| 20260504234544 | 69 | 144 | 0.0 | 3.5 | 0.00 | 0.00 | 0.00 | 43 | 1009.1 |
| 20260504233044 | 70 | 0 | 0.0 | 7.0 | 0.00 | 0.00 | 0.00 | 42 | 1009.1 |
| 20260504231545 | 70 | 0 | 0.9 | 4.3 | 0.00 | 0.00 | 0.00 | 42 | 1009.1 |
| 20260504230049 | 71 | 200 | 0.9 | 9.6 | 0.00 | 0.00 | 0.00 | 40 | 1009.1 |
| 20260504224549 | 72 | 166 | 0.9 | 7.0 | 0.00 | 0.00 | 0.00 | 40 | 1009.1 |
| 20260504223050 | 72 | 188 | 1.7 | 7.8 | 0.00 | 0.00 | 0.00 | 40 | 1009.0 |
| 20260504221545 | 72 | 273 | 1.7 | 7.8 | 0.00 | 0.00 | 0.00 | 38 | 1009.1 |
| 20260504220052 | 72 | 50 | 1.7 | 10.4 | 0.00 | 0.00 | 0.00 | 38 | 1009.2 |
| 20260504214557 | 73 | 200 | 1.7 | 10.4 | 0.00 | 0.00 | 0.00 | 37 | 1009.2 |
| 20260504213046 | 73 | 219 | 2.6 | 9.6 | 0.00 | 0.00 | 0.00 | 37 | 1009.3 |
| 20260504211548 | 74 | 170 | 1.7 | 9.6 | 0.00 | 0.00 | 0.00 | 37 | 1009.3 |
| 20260504210058 | 74 | 267 | 2.6 | 9.6 | 0.00 | 0.00 | 0.00 | 35 | 1009.1 |
| 20260504204601 | 74 | 194 | 1.7 | 7.8 | 0.00 | 0.00 | 0.00 | 35 | 1009.5 |
| 20260504203106 | 75 | 132 | 2.6 | 13.0 | 0.00 | 0.00 | 0.00 | 34 | 1009.5 |
| 20260504201547 | 76 | 306 | 4.3 | 11.3 | 0.00 | 0.00 | 0.00 | 34 | 1009.8 |
| 20260504200051 | 75 | 242 | 3.5 | 10.4 | 0.00 | 0.00 | 0.00 | 35 | 1010.0 |
| 20260504194553 | 76 | 150 | 3.5 | 8.7 | 0.00 | 0.00 | 0.00 | 34 | 1010.2 |
| 20260504193053 | 76 | 279 | 0.9 | 8.7 | 0.00 | 0.00 | 0.00 | 38 | 1010.3 |
| 20260504191554 | 75 | 103 | 2.6 | 12.2 | 0.00 | 0.00 | 0.00 | 35 | 1010.6 |
| 20260504190053 | 75 | 157 | 1.7 | 9.6 | 0.00 | 0.00 | 0.00 | 38 | 1010.7 |
| 20260504184545 | 75 | 175 | 1.7 | 7.8 | 0.00 | 0.00 | 0.00 | 36 | 1010.7 |
| 20260504183043 | 75 | 157 | 1.7 | 11.3 | 0.00 | 0.00 | 0.00 | 38 | 1011.2 |
| 20260504181543 | 74 | 160 | 2.6 | 8.7 | 0.00 | 0.00 | 0.00 | 35 | 1011.1 |
| 20260504180106 | 74 | 0 | 2.6 | 11.3 | 0.00 | 0.00 | 0.00 | 36 | 1011.4 |
| 20260504174546 | 74 | 197 | 2.6 | 11.3 | 0.00 | 0.00 | 0.00 | 35 | 1011.4 |
| 20260504173105 | 73 | 252 | 3.5 | 10.4 | 0.00 | 0.00 | 0.00 | 36 | 1011.7 |
| 20260504171545 | 73 | 170 | 3.5 | 13.0 | 0.00 | 0.00 | 0.00 | 36 | 1012.0 |
| 20260504081549 | 46 | 0 | 0.0 | 0.9 | 0.00 | 0.00 | 0.00 | 74 | 1014.5 |
| 20260504044546 | 49 | 239 | 0.0 | 3.5 | 0.00 | 0.00 | 0.00 | 59 | 1014.3 |
| 20260504043053 | 48 | 0 | 0.0 | 2.6 | 0.00 | 0.00 | 0.00 | 58 | 1014.1 |
| 20260504041546 | 48 | 0 | 0.0 | 4.3 | 0.00 | 0.00 | 0.00 | 58 | 1014.0 |